Location: Bruderhein
(53.8035°N, 112.9265°W)
Time: 08:02:37
(UTC+00:00)

TIGRISAT - Pass Details

Date: 05 April 2023
Orbit: 599 x 682 km, 97.7° (Epoch: 03 June)

Event Time Altitude Azimuth Distance (km) Brightness Sun altitude
Rises 11:14:01 0° 137° (SE) 2,965 ? -14.6°
Reaches altitude 10° 11:16:21 10° 128° (SE) 2,072 ? -14.3°
Maximum altitude 11:20:26 35° 64° (ENE) 1,088 ? -13.8°
Drops below altitude 10° 11:24:38 10° 360° (N) 2,124 ? -13.3°
Sets 11:27:03 0° 351° (N) 3,052 ? -13.0°
